カタログに戻る

QIANFAN-24

運用中通信PO
NORAD 61557·PAYLOAD·🇨🇳 China

打ち上げ Oct 15, 2024 から Taiyuan Satellite Launch Center

Loading…

次のパス (今後24時間)

TLE

最新Source: Space-Track

元期: Sep 14, 2026, 13:27 UTC

1 61557U 24185F   26257.56105251  .00000448  00000-0  18832-3 0  9992
2 61557  88.9826  44.9757 0011555 114.4142 245.8257 14.24153046109279

AllMySatでQIANFAN-24をリアルタイム追跡

Download on the App Store